This is the latest recevied weather packets stored in our database for station/object IQ5KG. If no packets are shown the sender has not sent any weather packets the latest 1 day(s).
| Time | Temp. | Humidity | Pressure | Rain* | Wind** | Luminosity | Snow |
|---|---|---|---|---|---|---|---|
| 1777977200 | 14.44° C | 99% | 1014.2 hPa | 20.32 mm | 0.89 m/s, 70° | - | - |
| 1777976300 | 13.89° C | 99% | 1013.7 hPa | 17.53 mm | 3.13 m/s, 62° | - | - |
| 1777975400 | 13.89° C | 99% | 1013.7 hPa | 13.72 mm | 4.47 m/s, 62° | - | - |
| 1777974499 | 13.33° C | 99% | 1013.5 hPa | 6.6 mm | 7.15 m/s, 58° | - | - |
| 1777973600 | 13.33° C | 99% | 1014.1 hPa | 5.08 mm | 0 m/s | - | - |
| 1777972699 | 13.33° C | 99% | 1013.7 hPa | 4.57 mm | 0 m/s | - | - |
| 1777971799 | 13.33° C | 99% | 1013.6 hPa | 4.32 mm | 0 m/s | - | - |
| 1777970899 | 13.33° C | 99% | 1013.8 hPa | 2.03 mm | 0 m/s | - | - |
| 1777969999 | 13.33° C | 99% | 1013.6 hPa | 1.52 mm | 0.45 m/s, 52° | - | - |
| 1777969099 | 13.33° C | 99% | 1013.6 hPa | 1.78 mm | 0.45 m/s, 58° | - | - |
| 1777968199 | 12.78° C | 99% | 1013.5 hPa | 1.78 mm | 0.89 m/s, 26° | - | - |
| 1777967298 | 12.78° C | 99% | 1013.5 hPa | 1.78 mm | 0.45 m/s, 46° | - | - |
| 1777966398 | 12.78° C | 99% | 1014.1 hPa | 0.51 mm | 0 m/s | - | - |
| 1777965499 | 12.78° C | 99% | 1013.5 hPa | 0 mm | 0 m/s | - | - |
| 1777964599 | 12.78° C | 99% | 1013.7 hPa | 0 mm | 5.81 m/s, 61° | - | - |
| 1777963699 | 12.22° C | 99% | 1013.5 hPa | 0.25 mm | 3.13 m/s, 68° | - | - |
| 1777962798 | 12.22° C | 99% | 1014 hPa | 0.51 mm | 4.47 m/s, 62° | - | - |
| 1777961897 | 12.22° C | 99% | 1013.8 hPa | 1.78 mm | 0.45 m/s, 156° | - | - |
| 1777960998 | 12.22° C | 99% | 1014 hPa | 3.81 mm | 0.45 m/s, 155° | - | - |
| 1777960098 | 11.67° C | 99% | 1013.8 hPa | 4.83 mm | 7.15 m/s, 156° | - | - |
| 1777959197 | 11.67° C | 99% | 1013.9 hPa | 6.6 mm | 0.45 m/s, 156° | - | - |
| 1777958296 | 11.67° C | 99% | 1014.1 hPa | 10.41 mm | 7.6 m/s, 156° | - | - |
| 1777957397 | 11.67° C | 99% | 1013.8 hPa | 12.95 mm | 9.39 m/s, 156° | - | - |
| 1777956497 | 12.22° C | 99% | 1013.4 hPa | 12.95 mm | 12.52 m/s, 156° | - | - |
| 1777955597 | 12.22° C | 98% | 1013.7 hPa | 10.92 mm | 9.39 m/s, 156° | - | - |
* Rain latest hour (hover to see other rain measurements)
** Current wind speed in m/s (hover to see current wind gust speed)